P/2000 Y3 ( Scotti ) 2012

Japanese version
Home page
Total 6,336 html files since Dec. 4, 1995
Updated on September 16, 2008

---------------------------------------------------------------------

* Profile

* Orbital Elements

Perturbed ephemeris below is based on elements from MPC 44030. 

 Epoch = 2455920.50000 TT   T = 2455947.11430 TT
 Peri. =   92.57536         a =     4.8982442 AU
 Node  =  354.16759 J2000.0 e =     0.2001428
 Incl. =    2.25898         q =     3.9178958 AU

* Magnitudes Graph

        m1 = 9.0 + 5 log d + 10.0 log r

---------------------------------------------------------------------

The orbital elements are calculated using the Minor Planet & Comet Ephemeris Service.
The magnitudes graphs are made with Comet for Windows.

---------------------------------------------------------------------

Copyright(C) 1995-2008 Seiichi Yoshida (comet@aerith.net). All rights reserved.